• In Netherlands
  • List of Countries
  • For 7 days
  • Water Temperature
  • Satellite Maps
  • Weather Map
  • Weather Widgets
  • user-avatar
    Login

    Hourly Weather Qala i Naw

    Today, 30 April, Sunday

    Time Temperature Precipitation Wind Pressure Humidity
    00:00 +12°C° 0 mm 1 mps 684 mmHg 37%
    01:00 +11°C° 0 mm 1 mps 684 mmHg 37%
    02:00 +11°C° 0 mm 1 mps 683 mmHg 38%
    03:00 +10°C° 0 mm 1 mps 683 mmHg 38%
    04:00 +10°C° 0 mm 1 mps 683 mmHg 38%
    05:00 +11°C° 0 mm 1 mps 683 mmHg 35%
    06:00 +13°C° 0 mm 1 mps 684 mmHg 31%
    07:00 +14°C° 0 mm 1 mps 684 mmHg 28%
    08:00 +16°C° 0 mm 2 mps 685 mmHg 26%
    09:00 +18°C° 0 mm 2 mps 685 mmHg 24%
    10:00 +20°C° 0 mm 2 mps 685 mmHg 21%
    11:00 +21°C° 0 mm 3 mps 685 mmHg 20%
    12:00 +22°C° 0 mm 3 mps 685 mmHg 19%
    13:00 +25°C° 0 mm 4 mps 685 mmHg 18%
    14:00 +25°C° 0 mm 4 mps 684 mmHg 18%
    15:00 +25°C° 0 mm 4 mps 684 mmHg 18%
    16:00 +25°C° 0 mm 4 mps 683 mmHg 18%
    17:00 +22°C° 0 mm 4 mps 683 mmHg 22%
    18:00 +20°C° 0 mm 3 mps 682 mmHg 26%
    19:00 +18°C° 0 mm 2 mps 682 mmHg 29%
    20:00 +17°C° 0 mm 2 mps 682 mmHg 31%
    21:00 +17°C° 0 mm 2 mps 682 mmHg 32%
    22:00 +16°C° 0 mm 2 mps 682 mmHg 33%
    23:00 +15°C° 0 mm 1 mps 682 mmHg 34%

    Tomorrow, 1 May, Monday

    Time Temperature Precipitation Wind Pressure Humidity
    00:00 +15°C° 0 mm 1 mps 681 mmHg 35%
    01:00 +14°C° 0 mm 1 mps 681 mmHg 36%
    02:00 +14°C° 0 mm 1 mps 681 mmHg 36%
    03:00 +13°C° 0 mm 1 mps 681 mmHg 37%
    04:00 +13°C° 0 mm 1 mps 681 mmHg 37%
    05:00 +14°C° 0 mm 1 mps 681 mmHg 34%
    06:00 +16°C° 0 mm 1 mps 682 mmHg 31%
    07:00 +18°C° 0 mm 1 mps 682 mmHg 28%
    08:00 +20°C° 0 mm 1 mps 683 mmHg 25%
    09:00 +22°C° 0 mm 1 mps 683 mmHg 23%
    10:00 +24°C° 0 mm 2 mps 683 mmHg 21%
    11:00 +25°C° 0 mm 2 mps 683 mmHg 20%
    12:00 +26°C° 0 mm 3 mps 683 mmHg 19%
    13:00 +27°C° 0 mm 3 mps 683 mmHg 18%
    14:00 +26°C° 0 mm 3 mps 682 mmHg 19%
    15:00 +26°C° 0 mm 3 mps 682 mmHg 20%
    16:00 +26°C° 0 mm 4 mps 682 mmHg 21%
    17:00 +25°C° 0 mm 3 mps 682 mmHg 24%
    18:00 +22°C° 0 mm 3 mps 682 mmHg 26%
    19:00 +21°C° 0 mm 2 mps 682 mmHg 29%
    20:00 +20°C° 0 mm 2 mps 682 mmHg 30%
    21:00 +19°C° 0 mm 2 mps 682 mmHg 31%
    22:00 +20°C° 0 mm 1 mps 682 mmHg 32%
    23:00 +19°C° 0 mm 1 mps 682 mmHg 32%

    Day after tomorrow, 2 May, Tuesday

    Time Temperature Precipitation Wind Pressure Humidity
    00:00 +19°C° 0 mm 1 mps 681 mmHg 33%
    01:00 +18°C° 0 mm 1 mps 681 mmHg 34%
    02:00 +18°C° 0 mm 1 mps 681 mmHg 34%
    03:00 +16°C° 0 mm 1 mps 681 mmHg 34%
    04:00 +16°C° 0 mm 1 mps 681 mmHg 35%
    05:00 +18°C° 0 mm 1 mps 682 mmHg 32%
    06:00 +18°C° 0 mm 2 mps 682 mmHg 30%
    07:00 +19°C° 0 mm 2 mps 683 mmHg 28%
    08:00 +20°C° 0 mm 2 mps 683 mmHg 26%
    09:00 +23°C° 0 mm 2 mps 683 mmHg 23%
    10:00 +24°C° 0 mm 2 mps 683 mmHg 20%
    11:00 +25°C° 0 mm 2 mps 683 mmHg 19%
    12:00 +26°C° 0 mm 3 mps 683 mmHg 18%
    13:00 +27°C° 0 mm 3 mps 683 mmHg 17%
    14:00 +27°C° 0 mm 4 mps 683 mmHg 17%
    15:00 +27°C° 0 mm 4 mps 682 mmHg 17%
    16:00 +27°C° 0 mm 4 mps 682 mmHg 17%
    17:00 +25°C° 0 mm 3 mps 682 mmHg 19%
    18:00 +22°C° 0 mm 3 mps 682 mmHg 21%
    19:00 +20°C° 0 mm 2 mps 682 mmHg 23%
    20:00 +19°C° 0 mm 2 mps 682 mmHg 24%
    21:00 +18°C° 0 mm 2 mps 682 mmHg 25%
    22:00 +19°C° 0 mm 1 mps 682 mmHg 26%
    23:00 +18°C° 0 mm 1 mps 682 mmHg 26%

    3 May, Wednesday

    Time Temperature Precipitation Wind Pressure Humidity
    00:00 +16°C° 0 mm 1 mps 682 mmHg 27%
    01:00 +16°C° 0 mm 1 mps 682 mmHg 28%
    02:00 +15°C° 0 mm 1 mps 681 mmHg 28%
    03:00 +15°C° 0 mm 1 mps 681 mmHg 28%
    04:00 +15°C° 0 mm 1 mps 681 mmHg 29%
    05:00 +18°C° 0 mm 1 mps 681 mmHg 27%
    06:00 +20°C° 0 mm 1 mps 682 mmHg 24%
    07:00 +21°C° 0 mm 1 mps 682 mmHg 22%
    08:00 +23°C° 0 mm 1 mps 683 mmHg 20%
    09:00 +25°C° 0 mm 1 mps 683 mmHg 17%
    10:00 +27°C° 0 mm 1 mps 683 mmHg 15%
    11:00 +28°C° 0 mm 1 mps 683 mmHg 14%
    12:00 +29°C° 0 mm 2 mps 683 mmHg 13%
    13:00 +29°C° 0 mm 2 mps 682 mmHg 12%
    14:00 +30°C° 0 mm 2 mps 682 mmHg 13%
    15:00 +30°C° 0 mm 3 mps 682 mmHg 13%
    16:00 +30°C° 0 mm 3 mps 681 mmHg 13%
    17:00 +28°C° 0 mm 2 mps 681 mmHg 16%
    18:00 +26°C° 0 mm 2 mps 681 mmHg 20%
    19:00 +24°C° 0 mm 1 mps 681 mmHg 23%
    20:00 +23°C° 0 mm 1 mps 681 mmHg 23%
    21:00 +22°C° 0 mm 1 mps 681 mmHg 24%
    22:00 +22°C° 0 mm 1 mps 681 mmHg 25%
    23:00 +22°C° 0 mm 1 mps 681 mmHg 25%

    4 May, Thursday

    Time Temperature Precipitation Wind Pressure Humidity
    00:00 +21°C° 0 mm 1 mps 680 mmHg 25%
    01:00 +21°C° 0 mm 1 mps 680 mmHg 25%
    02:00 +20°C° 0 mm 1 mps 680 mmHg 26%
    03:00 +20°C° 0 mm 1 mps 680 mmHg 27%
    04:00 +19°C° 0 mm 1 mps 680 mmHg 28%
    05:00 +21°C° 0 mm 1 mps 680 mmHg 26%
    06:00 +23°C° 0 mm 1 mps 681 mmHg 24%
    07:00 +25°C° 0 mm 1 mps 682 mmHg 22%
    08:00 +27°C° 0 mm 1 mps 682 mmHg 19%
    09:00 +29°C° 0 mm 1 mps 682 mmHg 16%
    10:00 +31°C° 0 mm 1 mps 682 mmHg 14%
    11:00 +32°C° 0 mm 1 mps 682 mmHg 13%
    12:00 +32°C° 0 mm 2 mps 682 mmHg 13%
    13:00 +34°C° 0 mm 2 mps 682 mmHg 12%
    14:00 +34°C° 0 mm 2 mps 681 mmHg 13%
    15:00 +34°C° 0 mm 2 mps 681 mmHg 13%
    16:00 +34°C° 0 mm 2 mps 681 mmHg 13%
    17:00 +32°C° 0 mm 2 mps 680 mmHg 15%
    18:00 +30°C° 0 mm 2 mps 680 mmHg 18%
    19:00 +28°C° 0 mm 2 mps 680 mmHg 20%
    20:00 +27°C° 0 mm 2 mps 680 mmHg 21%
    21:00 +27°C° 0 mm 2 mps 680 mmHg 21%
    22:00 +26°C° 0 mm 3 mps 680 mmHg 22%
    23:00 +26°C° 0 mm 3 mps 680 mmHg 22%

    5 May, Friday

    Time Temperature Precipitation Wind Pressure Humidity
    00:00 +26°C° 0 mm 3 mps 679 mmHg 22%
    01:00 +26°C° 0 mm 3 mps 679 mmHg 23%
    02:00 +25°C° 0.1 mm 3 mps 679 mmHg 25%
    03:00 +25°C° 0.1 mm 3 mps 679 mmHg 26%
    04:00 +24°C° 0.1 mm 3 mps 679 mmHg 28%
    05:00 +25°C° 0.1 mm 3 mps 679 mmHg 28%
    06:00 +26°C° 0.1 mm 3 mps 680 mmHg 27%
    07:00 +27°C° 0.1 mm 2 mps 680 mmHg 26%
    08:00 +29°C° 0.1 mm 3 mps 681 mmHg 23%
    09:00 +31°C° 0.1 mm 3 mps 681 mmHg 20%
    10:00 +34°C° 0.1 mm 3 mps 681 mmHg 17%
    11:00 +35°C° 0 mm 4 mps 681 mmHg 17%
    12:00 +35°C° 0 mm 5 mps 681 mmHg 16%
    13:00 +36°C° 0 mm 6 mps 681 mmHg 15%
    14:00 +36°C° 0 mm 6 mps 680 mmHg 16%
    15:00 +35°C° 0 mm 5 mps 680 mmHg 16%
    16:00 +35°C° 0 mm 5 mps 680 mmHg 16%
    17:00 +33°C° 0 mm 4 mps 680 mmHg 19%
    18:00 +29°C° 0 mm 3 mps 680 mmHg 22%
    19:00 +27°C° 0 mm 2 mps 679 mmHg 25%
    20:00 +26°C° 0 mm 2 mps 680 mmHg 26%
    21:00 +26°C° 0 mm 1 mps 680 mmHg 28%
    22:00 +25°C° 0 mm 1 mps 680 mmHg 29%
    23:00 +24°C° 0 mm 1 mps 680 mmHg 30%
    Show more